TIANWANG 1A (TW-1A)
1 40928U 15051D   19295.85979458  .00002446  00000-0  60472-4 0  9995
2 40928  97.1353 324.3463 0010546 344.9671 140.0962 15.41378432228606
LAPAN A2
1 40931U 15052B   19292.20985073  .00000520  00000-0 -16657-4 0  9994
2 40931   6.0031 262.9347 0012513  91.7878 268.3684 14.76616194219402
LQSAT
1 40958U 15057A   19295.83786914 -.00000012 +00000-0 +57691-5 0  9993
2 40958 097.8863 001.5443 0017907 192.2021 167.8756 14.73092646217380
CHUBUSAT 2
1 41338U 16012B   19295.71279829 +.00000328 +00000-0 +18732-4 0  9998
2 41338 031.0036 063.8651 0013919 271.8298 088.0743 15.00196151201858
CHUBUSAT 3
1 41339U 16012C   19295.73419302  .00000285  00000-0  15349-4 0  9996
2 41339  31.0108  61.6602 0013847 279.1572  80.7492 15.00368031201855
OUFTI-1
1 41458U 16025C   19295.83393395 +.00000633 +00000-0 +36661-4 0  9993
2 41458 098.1003 029.0945 0164393 293.0782 065.3186 15.06094735191551
E-STAR-2
1 41459U 16025D   19295.81465629  .00000793  00000-0  44956-4 0  9995
2 41459  98.0994  28.6617 0165955 294.6797  63.7228 15.05712995191529
AAUSAT 4
1 41460U 16025E   19295.82830789  .00000814  00000-0  44966-4 0  9996
2 41460  98.0923  30.2430 0155765 286.0291  72.3820 15.07703152191674
NUSAT 1
1 41557U 16033B   19295.90101378 +.00001117 +00000-0 +44276-4 0  9997
2 41557 097.4145 022.6602 0013038 205.7219 154.3373 15.27458492189352
BEESAT 4
1 41619U 16040W   19295.84013890 +.00001180 +00000-0 +52500-4 0  9997
2 41619 097.3539 355.6359 0009804 304.8074 055.2240 15.23385989173060
PRATHAM
1 41783U 16059A   19295.71666032  .00000048  00000-0  18545-4 0  9990
2 41783  98.0532 352.4211 0033207 349.9898  10.0639 14.63015310163974
ALSAT 1N
1 41789U 16059G   19295.93935336 +.00000069 +00000-0 +22039-4 0  9992
2 41789 098.0561 354.9119 0027808 338.7144 021.2890 14.64269273164127
NAYIF 1
1 42017U 17008BX  19295.75748799  .00001308  00000-0  53961-4 0  9992
2 42017  97.3906   1.4849 0007945  87.0494 273.1654 15.25810821149143
MAX VALIER SAT
1 42778U 17036P   19295.75161019 +.00000803 +00000-0 +37905-4 0  9990
2 42778 097.3403 350.5538 0013575 136.5770 223.6538 15.22194758129415
